Location: Castellare
(42.4669°N, 9.4728°E)
Time: 09:51:39
(UTC+00:00)

FENGYUN 3A - Pass Details

Date: 17 February 2020
Orbit: 823 x 836 km, 98.4° (Epoch: 09 April)

Event Time Altitude Azimuth Distance (km) Brightness Sun altitude
Rises 04:50:24 0° 11° (N) 3,395 7.0 -16.6°
Reaches altitude 10° 04:52:46 10° 10° (N) 2,457 6.2 -16.1°
Maximum altitude 04:58:12 74° 286° (WNW) 873 3.6 -15.1°
Drops below altitude 10° 05:03:36 10° 202° (SSW) 2,441 5.9 -14.1°
Sets 05:05:57 0° 201° (SSW) 3,371 6.7 -13.7°
